Regional Weather Roundup
Issued by NWS

Home | Current Version | Previous Version | Graphics & Text | Print | Product List | Glossary On
Versions: 1 2 3 4 5 6 7 8 9 10 11 12 13 14 15 16 17 18 19 20 21 22 23 24 25 26 27 28 29 30 31 32 33 34 35 36 37 38 39 40 41 42 43 44 45 46 47 48 49 50
000
ASUS43 KDTX 021710
RWRMI
MICHIGAN HOURLY REGIONAL WEATHER ROUNDUP
NATIONAL WEATHER SERVICE DETROIT/PONTIAC MI
1200 PM EST MON MAR 02 2015

NOTE: "FAIR" INDICATES FEW OR NO CLOUDS BELOW 12,000 FEET WITH NO
SIGNIFICANT WEATHER AND/OR OBSTRUCTION TO VISIBILITY.

MIZ047>049-052>055-059>063-066>070-074>076-081>083-021800-
SOUTHEAST LOWER MICHIGAN

CITY           SKY/WX    TMP DP  RH WIND       PRES   REMARKS
ADRIAN         SUNNY     26  14  60 NW8       30.47R
ALMA           MOSUNNY   25  11  55 W13       30.45R
ANN ARBOR      SUNNY     27  12  53 W15       30.45
BAD AXE        CLOUDY    23  13  65 NW13      30.40S
DETROIT CITY   SUNNY     30  11  45 NW12      30.44R
DETROIT        MOSUNNY   29  12  49 W12       30.46R
FLINT          SUNNY     26  11  52 W12       30.44R
GROSSE ILE     SUNNY     28  12  50 W14G21    30.44R
HILLSDALE      MOSUNNY   26  13  59 W6        30.44S
HOWELL         SUNNY     26  11  55 W9        30.43R

CITY           SKY/WX    TMP DP  RH WIND       PRES   REMARKS
JACKSON        SUNNY     26  12  55 NW9       30.44R
LAMBERTVILLE   SUNNY     28  16  59 W9        30.48S
LANSING        SUNNY     26  12  55 NW12      30.45R
LAPEER         NOT AVBL
MASON          SUNNY     26  12  56 W8        30.45R
MONROE         SUNNY     27  14  59 W13       30.46R
MT. CLEMENS    MOSUNNY   27  11  53 NW12      30.41R
PONTIAC        MOSUNNY   26  11  52 NW14      30.41R
PORT HOPE        N/A     24   9  52 NW8       30.38R
PORT HURON     MOSUNNY   25  12  58 NW10G16   30.43R
TRI CITIES     MOSUNNY   26  10  50 W9        30.43R
YPSILANTI      SUNNY     31  12  45 NW13      30.45R
$$
MIZ043>046-050>051-056>058-064>065-071>073-077>080-021800-
SOUTHWEST LOWER MICHIGAN

CITY           SKY/WX    TMP DP  RH WIND       PRES   REMARKS
BATTLE CREEK   PTSUNNY   29  15  56 W7        30.45F
BENTON HARBOR  CLOUDY    26  15  63 W12       30.51R
BIG RAPIDS     MOSUNNY   26   8  47 W3        30.41S
COLDWATER      MOSUNNY   27  16  63 W9        30.47S
HOLLAND        CLOUDY    28  15  58 W8        30.49R
GRAND RAPIDS   MOSUNNY   27  12  53 NW7       30.45S
KALAMAZOO        N/A     27  15  61 W9        30.47R
MARSHALL       MOSUNNY   28  13  52 W12       30.44F
MUSKEGON       PTSUNNY   27  11  51 W8        30.48R
$$
MIZ016>042-021800-
NORTHERN LOWER MICHIGAN

CITY           SKY/WX    TMP DP  RH WIND       PRES   REMARKS
ALPENA         MOSUNNY   24   4  42 W12G21    30.36R
BEAVER ISLAND  SUNNY     21   8  55 W12       30.40R
BELLAIRE       MOSUNNY   23   6  49 W9        30.44R
CADILLAC       SUNNY     22   6  49 W9G17     30.37R
CHARLEVOIX     SUNNY     21  10  63 NW12      30.45R
FRANKFORT      MOSUNNY   23  11  61 NW10      30.44S
GAYLORD        MOSUNNY   19   5  54 W13       30.34R
GRAYLING       SUNNY     21   5  49 W10G17    30.38R
HARBOR SPRINGS MOSUNNY   22   9  57 W9        30.39R
HOUGHTON LAKE  SUNNY     21   5  50 W13G21    30.38R
MANISTEE       MOSUNNY   23   9  54 NW10      30.46R
OSCODA         PTSUNNY   25   8  47 W10G16    30.38R
PELLSTON       MOSUNNY   20   7  57 W14G28    30.39R
TRAVERSE CITY  MOSUNNY   23   8  52 NW8       30.42R
$$
MIZ007>008-015-021800-
EASTERN UPPER MICHIGAN

CITY           SKY/WX    TMP DP  RH WIND       PRES   REMARKS
KINROSS        PTSUNNY   19   9  63 NW20G28   30.33R
MACKINAC ISLAN MOSUNNY   20  10  64 W12G21    30.35R
NEWBERRY       MOSUNNY   19   5  54 NW13      30.35R
S. S. MARIE    CLOUDY    18   6  59 NW16G23   30.34R
$$
MIZ004>006-011>014-085-021800-
CENTRAL UPPER MICHIGAN

CITY           SKY/WX    TMP DP  RH WIND       PRES   REMARKS
MANISTIQUE     SUNNY     22   7  51 W8G21     30.39R
ESCANABA       SUNNY     23   1  39 N6        30.41S
MENOMINEE      SUNNY     23   5  46 W3        30.43R
SAWYER-GWINN   SUNNY     19  -2  38 N12G17    30.34S
$$
MIZ001>003-009>011-084-021800-
WESTERN UPPER MICHIGAN

CITY           SKY/WX    TMP DP  RH WIND       PRES   REMARKS
IRON MOUNTAIN  SUNNY     21   4  47 NW8       30.36R
HOUGHTON       SUNNY     18   4  54 W10       30.35S
COPPER HARBOR    N/A     16   3  56 N10       30.38R
IRONWOOD       SUNNY     19   7  58 W9        30.36S
$$

ABBREVIATIONS USED IN REMARKS
   TC - TEMPERATURE IN CELSIUS
  WCI - WIND CHILL INDEX
   HX - HEAT INDEX
  VSB - VISIBILITY



USA.gov is the U.S. government's official web portal to all federal, state and local government web resources and services.